User: anonymous   Login
Location: Unspecified
(0.0000°N, 0.0000°E)
Time: 12:30:02
(UTC+00:00)
Language:

AO-91 - Orbit

View from above orbital plane
View from above orbital plane
View from above satellite
View from above satellite

Ground track
Ground track

The orbit data is extracted from the following two-line orbital elements,

1 43017U 17073E   22268.92463672  .00003560  00000-0  26930-3 0  9999
2 43017  97.6601 158.9832 0245408 218.3816 139.9717 14.82062776261991
Epoch (UTC): 25 September 2022 22:11:28
Eccentricity: 0.0245408
inclination: 97.6601°
perigee height: 451 km
apogee height: 794 km
right ascension of ascending node: 158.9832°
argument of perigee: 218.3816°
revolutions per day: 14.82062776
mean anomaly at epoch: 139.9717°
orbit number at epoch: 26199

The dashed part of the orbit path shows where the satellite is in the earth's shadow,  

DLR